MCMWTC BRIDGEPORT, CA, CA

1:28 PM PDT on July 25, 2017 (GMT -0700)
MCMWTC BRIDGEPORT, CA

Weather History for KBAN - April, 2014

Change the Weather History Date:

Sunday, April 27, 2014

  Actual Average (KTVL) Record (KTVL)
Temperature  
Mean Temperature 38 °F -  
Max Temperature 51 °F 52 °F 72 °F (2013)
Min Temperature 28 °F 28 °F 8 °F (1955)
Degree Days  
Heating Degree Days 27    
Moisture  
Dew Point 19 °F    
Average Humidity 44    
Maximum Humidity 63    
Minimum Humidity 29    
Precipitation  
Precipitation 0.00 in - - ()
Sea Level Pressure  
Sea Level Pressure 29.93 in    
Wind  
Wind Speed 10 mph (WSW)    
Max Wind Speed 18 mph    
Max Gust Speed 32 mph    
Visibility 10 miles    
Events      
Averages and records for this station are not official NWS values.
T = Trace of Precipitation, MM = Missing Value Source: NWS Daily Summary

Daily Weather History Graph

Daily Weather History Graph

Search for Another Location

Airport or City:

Trip Planner

Search our weather history database for the weather conditions in past years. The results will help you decide how hot, cold, wet, or windy it might be!

Date:

Astronomy

Apr. 27, 2014 Rise Set
Actual Time 6:06 AM PDT 7:45 PM PDT
Civil Twilight 5:37 AM PDT 8:14 PM PDT
Nautical Twilight 5:03 AM PDT 8:48 PM PDT
Astronomical Twilight 4:27 AM PDT 9:24 PM PDT
Moon 5:07 AM PDT (4/27) 6:26 PM PDT (4/27)
Length of Visible Light 14h 36m
Length of Day
13h 39m
Waning Crescent, 3% of the Moon is Illuminated
Apr 27
Waning Crescent
Apr 28
New
May 6
First Quarter
May 14
Full
May 21
Last Quarter

Hourly Weather History & Observations

Time (PDT) Temp. Windchill Dew Point Humidity Pressure Visibility Wind Dir Wind Speed Gust Speed Precip Events Conditions
12:52 AM 34.0 °F 26.0 °F 17.1 °F 50% 29.88 in 10.0 mi West 10.4 mph - N/A   Clear
1:52 AM 35.1 °F 29.3 °F 15.1 °F 44% 29.87 in 10.0 mi Variable 6.9 mph - N/A   Clear
2:52 AM 34.0 °F 28.8 °F 17.1 °F 50% 29.88 in 10.0 mi NW 5.8 mph - N/A   Clear
3:52 AM 32.0 °F 28.7 °F 17.1 °F 54% 29.88 in 10.0 mi NE 3.5 mph - N/A   Clear
4:52 AM 30.0 °F 22.4 °F 17.1 °F 59% 29.90 in 10.0 mi North 8.1 mph - N/A   Clear
5:52 AM 28.0 °F - 17.1 °F 63% 29.89 in 10.0 mi Calm Calm - N/A   Clear
6:52 AM 32.0 °F 26.4 °F 19.0 °F 59% 29.92 in 10.0 mi NE 5.8 mph - N/A   Clear
7:52 AM 37.9 °F 29.2 °F 23.0 °F 55% 29.92 in 10.0 mi SW 15.0 mph 23.0 mph N/A   Clear
8:52 AM 39.9 °F 33.4 °F 21.9 °F 49% 29.92 in 10.0 mi SW 10.4 mph 23.0 mph N/A   Clear
9:52 AM 44.1 °F 36.5 °F 21.9 °F 42% 29.91 in 10.0 mi SW 17.3 mph 29.9 mph N/A   Clear
10:52 AM 46.0 °F 39.9 °F 19.9 °F 35% 29.92 in 10.0 mi WSW 13.8 mph 26.5 mph N/A   Clear
11:52 AM 46.9 °F - 19.0 °F 33% 29.93 in 10.0 mi SW 12.7 mph 31.1 mph N/A   Clear
12:52 PM 48.9 °F - 19.0 °F 31% 29.93 in 10.0 mi SW 18.4 mph 28.8 mph N/A   Clear
1:52 PM 48.9 °F - 19.0 °F 31% 29.94 in 10.0 mi SW 16.1 mph 32.2 mph N/A   Mostly Cloudy
2:52 PM 48.9 °F - 19.0 °F 31% 29.94 in 10.0 mi West 17.3 mph 24.2 mph N/A   Partly Cloudy
3:52 PM 48.9 °F - 18.0 °F 29% 29.93 in 10.0 mi WSW 8.1 mph 18.4 mph N/A   Partly Cloudy
4:52 PM 46.9 °F - 19.0 °F 33% 29.94 in 10.0 mi WSW 16.1 mph 21.9 mph N/A   Clear
5:52 PM 46.0 °F 39.9 °F 18.0 °F 33% 29.96 in 10.0 mi SW 13.8 mph 24.2 mph N/A   Clear
6:52 PM 43.0 °F 36.0 °F 19.0 °F 38% 29.97 in 10.0 mi WSW 13.8 mph 21.9 mph N/A   Clear
8:52 PM 39.9 °F 32.1 °F 21.0 °F 47% 29.98 in 10.0 mi WSW 13.8 mph 21.9 mph N/A   Clear
9:52 PM 37.0 °F 32.4 °F 19.0 °F 48% 29.99 in 10.0 mi West 5.8 mph - N/A   Clear
10:52 PM 35.1 °F 31.0 °F 16.0 °F 46% 29.99 in 10.0 mi WNW 4.6 mph - N/A   Clear
11:52 PM 32.0 °F - 14.0 °F 48% 30.01 in 10.0 mi Calm Calm - N/A   Clear